contact:dominique.lefevre@mio.osupytheas.fr, maurice.libes@osupytheas.fr, didier.mallarino@osupytheas.fr
Project:EMSO http://www.emso-fr.org/EMSO-France
Depth: 2436.0 m
Title:EMSO Ligure Ouest : Data MII capteur AQUADOPP
Date,Latitude,Longitude,X_East,Y_North,Z_Up,Amplitude_X,Amplitude_Y,Amplitude_Z,Batterie,SoundSpeed,Heading,Pitch,Roll,Pressure,TIS,Speed,Direction
, degrees North, degrees East, m.s-1, m.s-1,m.s-1, 1, 1, 1, Volt, m.s-1, degree, degree, degree, dbar, degree_C, m.s-1, degree
2022-05-08T00:04:03,42.805,6.029,0.052,-0.035,-0.011,101.0,106.0,100.0,13.4,1505.2,325.5,-0.8,1.8,2470.997,13.28,0.062,123.9
2022-05-08T00:07:03,42.805,6.029,0.016,0.001,0.021,101.0,106.0,100.0,13.4,1505.2,330.1,-0.8,1.8,2471.119,13.28,0.016,86.4
2022-05-08T00:10:03,42.805,6.029,0.057,-0.007,0.022,102.0,106.0,100.0,13.3,1505.2,324.3,-0.8,1.8,2471.105,13.28,0.057,97.0
2022-05-08T00:13:03,42.805,6.029,0.048,0.007,0.029,101.0,107.0,100.0,13.4,1505.2,324.1,-0.8,1.8,2471.037,13.28,0.048,81.7
2022-05-08T00:16:03,42.805,6.029,0.038,-0.009,0.009,100.0,106.0,101.0,13.3,1505.2,324.7,-0.8,1.8,2471.036,13.28,0.039,103.3
2022-05-08T00:19:03,42.805,6.029,0.033,-0.017,0.031,101.0,107.0,100.0,13.3,1505.2,331.4,-0.7,1.8,2470.976,13.28,0.037,117.3
2022-05-08T00:22:03,42.805,6.029,0.022,-0.021,-0.004,101.0,105.0,101.0,13.4,1505.2,323.3,-0.8,1.8,2470.932,13.28,0.03,133.7
2022-05-08T00:25:03,42.805,6.029,0.057,-0.02,0.04,101.0,105.0,100.0,13.4,1505.2,330.1,-0.7,1.8,2470.871,13.28,0.06,109.3
2022-05-08T00:28:03,42.805,6.029,0.011,0.005,0.027,100.0,105.0,101.0,13.4,1505.2,332.4,-0.7,1.8,2470.828,13.28,0.012,65.6
2022-05-08T00:31:03,42.805,6.029,0.026,-0.034,0.004,101.0,107.0,101.0,13.3,1505.2,332.2,-0.8,1.8,2470.746,13.28,0.042,142.6
2022-05-08T00:34:03,42.805,6.029,0.021,-0.002,0.014,101.0,107.0,100.0,13.3,1505.2,325.7,-0.8,1.8,2470.672,13.28,0.021,95.4
2022-05-08T00:37:03,42.805,6.029,0.072,-0.01,0.066,102.0,106.0,100.0,13.3,1505.2,327.8,-0.7,1.8,2470.539,13.28,0.072,97.9
2022-05-08T00:40:03,42.805,6.029,0.058,0.006,0.048,101.0,106.0,100.0,13.4,1505.2,322.2,-0.8,1.8,2470.478,13.28,0.058,84.1
2022-05-08T00:43:03,42.805,6.029,0.026,-0.034,-0.018,100.0,106.0,100.0,13.4,1505.2,325.4,-0.7,1.8,2470.39,13.28,0.042,142.6
2022-05-08T00:46:03,42.805,6.029,0.012,0.011,0.007,100.0,107.0,100.0,13.3,1505.2,328.4,-0.8,1.8,2470.372,13.28,0.016,47.5
2022-05-08T00:49:03,42.805,6.029,0.025,-0.006,0.019,101.0,107.0,101.0,13.3,1505.2,326.7,-0.7,1.8,2470.28,13.28,0.025,103.5
2022-05-08T00:52:03,42.805,6.029,0.035,-0.015,0.028,101.0,106.0,101.0,13.4,1505.2,332.0,-0.8,1.8,2470.266,13.28,0.038,113.2
2022-05-08T00:55:03,42.805,6.029,0.072,-0.001,0.08,101.0,104.0,101.0,13.3,1505.2,326.8,-0.8,1.8,2470.292,13.28,0.072,90.8
2022-05-08T00:58:03,42.805,6.029,0.044,-0.004,0.015,100.0,106.0,100.0,13.4,1505.2,333.2,-0.7,1.8,2470.288,13.28,0.044,95.2
2022-05-08T01:04:03,42.805,6.029,0.051,-0.005,0.069,101.0,107.0,102.0,13.3,1505.2,329.2,-0.8,1.8,2470.196,13.28,0.051,95.6
2022-05-08T01:07:04,42.805,6.029,0.01,-0.019,-0.004,101.0,107.0,101.0,13.4,1505.2,328.3,-0.7,1.8,2470.229,13.28,0.021,152.2
2022-05-08T01:10:03,42.805,6.029,0.012,-0.018,0.022,101.0,105.0,101.0,13.3,1505.2,328.7,-0.7,1.8,2470.205,13.28,0.021,146.3
2022-05-08T01:13:03,42.805,6.029,0.039,-0.012,0.007,101.0,107.0,101.0,13.3,1505.2,325.9,-0.8,1.8,2470.165,13.28,0.04,107.1
2022-05-08T01:16:03,42.805,6.029,0.007,0.005,0.015,100.0,108.0,99.0,13.4,1505.2,329.9,-0.8,1.8,2470.166,13.28,0.008,54.5
2022-05-08T01:19:03,42.805,6.029,0.044,0.002,0.022,101.0,107.0,100.0,13.4,1505.2,331.8,-0.8,1.8,2470.176,13.28,0.044,87.4
2022-05-08T01:22:03,42.805,6.029,0.019,-0.016,0.009,101.0,107.0,101.0,13.4,1505.2,332.2,-0.7,1.8,2470.18,13.28,0.024,130.1
2022-05-08T01:25:03,42.805,6.029,0.046,-0.005,0.005,100.0,108.0,101.0,13.4,1505.2,332.0,-0.7,1.8,2470.176,13.28,0.046,96.2
2022-05-08T01:28:03,42.805,6.029,0.038,-0.012,-0.005,101.0,107.0,101.0,13.3,1505.2,325.4,-0.8,1.8,2470.2,13.28,0.039,107.5
2022-05-08T01:31:03,42.805,6.029,0.047,-0.021,0.018,101.0,108.0,101.0,13.4,1505.2,322.8,-0.8,1.8,2470.18,13.28,0.051,114.1
2022-05-08T01:34:03,42.805,6.029,0.04,-0.01,0.015,101.0,106.0,101.0,13.3,1505.2,332.0,-0.7,1.8,2470.161,13.28,0.041,104.0
2022-05-08T01:37:03,42.805,6.029,0.013,0.0,0.008,98.0,107.0,102.0,13.4,1505.2,329.8,-0.7,1.8,2470.243,13.28,0.013,90.0
2022-05-08T01:40:03,42.805,6.029,0.002,-0.007,0.023,103.0,106.0,100.0,13.4,1505.2,328.9,-0.7,1.8,2470.221,13.28,0.007,164.1
2022-05-08T01:43:03,42.805,6.029,0.037,-0.002,0.021,102.0,105.0,101.0,13.4,1505.2,325.3,-0.7,1.8,2470.304,13.28,0.037,93.1
2022-05-08T01:46:03,42.805,6.029,0.006,-0.003,0.013,100.0,107.0,99.0,13.4,1505.2,324.4,-0.8,1.9,2470.404,13.28,0.006,116.6
2022-05-08T01:49:03,42.805,6.029,0.022,-0.021,0.0,100.0,108.0,100.0,13.4,1505.2,326.2,-0.8,1.8,2470.452,13.28,0.03,133.7
2022-05-08T01:52:03,42.805,6.029,0.036,-0.022,0.037,101.0,107.0,100.0,13.4,1505.2,326.3,-0.7,1.8,2470.472,13.28,0.042,121.4
2022-05-08T01:55:03,42.805,6.029,0.038,0.006,0.031,102.0,104.0,101.0,13.4,1505.2,322.6,-0.8,1.8,2470.241,13.28,0.038,81.0
2022-05-08T01:58:03,42.805,6.029,0.019,-0.005,0.005,102.0,105.0,100.0,13.4,1505.2,323.9,-0.8,1.8,2470.178,13.28,0.019,104.7
2022-05-08T02:04:03,42.805,6.029,0.05,-0.008,0.042,100.0,108.0,100.0,13.3,1505.2,327.0,-0.8,1.8,2470.217,13.28,0.05,99.1
2022-05-08T02:07:03,42.805,6.029,0.039,-0.013,0.034,101.0,106.0,101.0,13.3,1505.2,330.6,-0.7,1.8,2470.188,13.28,0.041,108.4
2022-05-08T02:10:03,42.805,6.029,0.048,-0.002,0.037,101.0,108.0,100.0,13.4,1505.2,322.2,-0.8,1.8,2470.225,13.28,0.048,92.4
2022-05-08T02:13:03,42.805,6.029,0.01,-0.023,0.003,103.0,106.0,100.0,13.4,1505.2,324.2,-0.8,1.8,2470.223,13.28,0.025,156.5
2022-05-08T02:16:03,42.805,6.029,0.028,-0.011,0.001,99.0,107.0,100.0,13.4,1505.2,333.0,-0.8,1.8,2470.307,13.28,0.03,111.4
2022-05-08T02:19:03,42.805,6.029,0.016,-0.022,-0.021,102.0,104.0,100.0,13.4,1505.2,331.1,-0.8,1.8,2470.274,13.28,0.027,144.0
2022-05-08T02:22:03,42.805,6.029,0.035,-0.03,0.05,98.0,106.0,101.0,13.4,1505.2,332.4,-0.7,1.8,2470.304,13.28,0.046,130.6
2022-05-08T02:25:03,42.805,6.029,0.012,-0.008,0.016,102.0,106.0,101.0,13.4,1505.2,331.6,-0.8,1.8,2470.347,13.28,0.014,123.7
2022-05-08T02:28:03,42.805,6.029,0.04,-0.023,0.023,100.0,105.0,101.0,13.4,1505.2,325.3,-0.7,1.8,2470.308,13.28,0.046,119.9
2022-05-08T02:31:03,42.805,6.029,0.035,-0.027,0.002,101.0,106.0,100.0,13.4,1505.2,323.0,-0.8,1.8,2470.341,13.28,0.044,127.7
2022-05-08T02:34:03,42.805,6.029,0.03,-0.016,0.003,101.0,107.0,101.0,13.4,1505.2,326.8,-0.8,1.8,2470.344,13.28,0.034,118.1
2022-05-08T02:37:03,42.805,6.029,0.034,-0.005,0.017,100.0,107.0,101.0,13.4,1505.2,326.0,-0.8,1.8,2470.377,13.28,0.034,98.4
2022-05-08T02:40:03,42.805,6.029,0.037,-0.024,-0.028,100.0,106.0,100.0,13.4,1505.2,329.3,-0.8,1.8,2470.395,13.28,0.044,123.0
2022-05-08T02:43:03,42.805,6.029,0.06,0.008,0.054,102.0,104.0,100.0,13.3,1505.2,326.7,-0.8,1.8,2470.374,13.28,0.06,82.4
2022-05-08T02:46:03,42.805,6.029,0.033,0.003,-0.004,102.0,106.0,100.0,13.4,1505.2,331.8,-0.8,1.8,2470.346,13.28,0.033,84.8
2022-05-08T02:49:03,42.805,6.029,0.042,-0.013,0.052,102.0,106.0,100.0,13.3,1505.2,331.4,-0.7,1.8,2470.37,13.28,0.043,107.2
2022-05-08T02:52:03,42.805,6.029,0.036,-0.008,0.049,102.0,104.0,101.0,13.3,1505.2,329.0,-0.7,1.8,2470.382,13.28,0.036,102.5
2022-05-08T02:55:03,42.805,6.029,0.06,-0.008,0.015,99.0,105.0,101.0,13.4,1505.2,325.6,-0.8,1.8,2470.406,13.28,0.06,97.6
2022-05-08T02:58:03,42.805,6.029,0.023,-0.036,-0.022,101.0,106.0,101.0,13.4,1505.2,331.7,-0.7,1.8,2470.382,13.28,0.042,147.4
2022-05-08T03:04:03,42.805,6.029,0.051,-0.032,0.022,101.0,107.0,101.0,13.4,1505.2,332.4,-0.7,1.8,2470.445,13.28,0.06,122.1
2022-05-08T03:07:03,42.805,6.029,0.011,0.005,0.003,101.0,106.0,100.0,13.3,1505.2,331.7,-0.8,1.8,2470.436,13.28,0.012,65.6
2022-05-08T03:10:03,42.805,6.029,0.046,-0.007,0.022,100.0,106.0,101.0,13.4,1505.2,330.7,-0.7,1.8,2470.46,13.28,0.046,98.7
2022-05-08T03:13:03,42.805,6.029,0.057,-0.002,0.034,100.0,106.0,101.0,13.4,1505.2,327.8,-0.8,1.8,2470.429,13.28,0.057,92.0
2022-05-08T03:16:03,42.805,6.029,0.027,-0.007,0.01,99.0,106.0,102.0,13.4,1505.2,331.5,-0.7,1.8,2470.439,13.28,0.027,104.5
2022-05-08T03:19:03,42.805,6.029,0.033,-0.011,0.0,101.0,104.0,101.0,13.4,1505.2,326.3,-0.7,1.8,2470.447,13.28,0.034,108.4
2022-05-08T03:22:03,42.805,6.029,0.06,-0.023,0.004,102.0,104.0,99.0,13.3,1505.2,325.1,-0.8,1.8,2470.437,13.28,0.064,111.0
2022-05-08T03:25:03,42.805,6.029,0.08,-0.015,0.035,100.0,106.0,102.0,13.4,1505.2,325.2,-0.8,1.8,2470.471,13.28,0.081,100.6
2022-05-08T03:28:03,42.805,6.029,0.024,0.01,0.01,102.0,104.0,101.0,13.4,1505.2,327.3,-0.7,1.8,2470.476,13.28,0.026,67.4
2022-05-08T03:31:03,42.805,6.029,0.056,0.002,0.03,101.0,104.0,100.0,13.4,1505.2,326.8,-0.8,1.8,2470.513,13.28,0.056,88.0
2022-05-08T03:34:03,42.805,6.029,0.026,0.0,0.013,102.0,105.0,101.0,13.4,1505.2,322.1,-0.7,1.8,2470.477,13.28,0.026,90.0
2022-05-08T03:37:03,42.805,6.029,0.019,-0.009,0.027,101.0,107.0,100.0,13.3,1505.2,331.1,-0.8,1.8,2470.48,13.28,0.021,115.3
2022-05-08T03:40:03,42.805,6.029,0.032,-0.015,0.024,101.0,105.0,101.0,13.3,1505.2,329.1,-0.8,1.8,2470.475,13.28,0.035,115.1
2022-05-08T03:43:03,42.805,6.029,0.057,-0.007,0.012,102.0,103.0,100.0,13.4,1505.2,323.0,-0.8,1.8,2470.477,13.28,0.057,97.0
2022-05-08T03:46:03,42.805,6.029,0.042,-0.016,0.018,102.0,105.0,100.0,13.4,1505.2,327.6,-0.8,1.8,2470.461,13.28,0.044,110.9
2022-05-08T03:49:03,42.805,6.029,0.053,-0.015,0.004,101.0,104.0,100.0,13.4,1505.2,324.9,-0.7,1.8,2470.429,13.28,0.055,105.8
2022-05-08T03:52:03,42.805,6.029,0.032,-0.034,-0.002,100.0,106.0,99.0,13.4,1505.2,330.0,-0.8,1.8,2470.438,13.28,0.046,136.7
2022-05-08T03:55:03,42.805,6.029,0.005,-0.02,0.006,100.0,104.0,101.0,13.4,1505.2,327.8,-0.7,1.8,2470.47,13.28,0.02,166.0
2022-05-08T03:58:03,42.805,6.029,0.025,-0.002,0.011,101.0,105.0,101.0,13.3,1505.2,330.5,-0.7,1.8,2470.461,13.28,0.025,94.6
2022-05-08T04:04:03,42.805,6.029,0.067,-0.018,0.042,100.0,106.0,100.0,13.4,1505.2,326.0,-0.8,1.8,2470.496,13.28,0.069,105.0
2022-05-08T04:07:03,42.805,6.029,0.035,-0.009,0.043,101.0,103.0,100.0,13.4,1505.2,328.6,-0.8,1.8,2470.561,13.28,0.036,104.4
2022-05-08T04:10:03,42.805,6.029,0.029,-0.019,0.012,101.0,104.0,100.0,13.4,1505.2,327.5,-0.7,1.8,2470.504,13.28,0.034,123.2
2022-05-08T04:13:03,42.805,6.029,0.038,-0.023,0.001,101.0,105.0,100.0,13.3,1505.2,321.2,-0.8,1.8,2470.515,13.28,0.044,121.2
2022-05-08T04:16:03,42.805,6.029,0.056,-0.026,0.012,101.0,105.0,100.0,13.4,1505.2,328.9,-0.8,1.8,2470.546,13.28,0.061,114.9
2022-05-08T04:19:03,42.805,6.029,0.041,-0.011,0.042,101.0,104.0,100.0,13.4,1505.2,332.6,-0.8,1.8,2470.577,13.28,0.042,105.0
2022-05-08T04:22:03,42.805,6.029,0.006,0.003,-0.011,101.0,104.0,100.0,13.4,1505.2,331.8,-0.8,1.8,2470.562,13.28,0.006,63.4
2022-05-08T04:25:03,42.805,6.029,0.028,-0.016,0.009,101.0,105.0,101.0,13.4,1505.2,331.9,-0.7,1.8,2470.547,13.28,0.032,119.7
2022-05-08T04:28:03,42.805,6.029,0.049,-0.029,0.009,102.0,102.0,101.0,13.4,1505.2,330.6,-0.8,1.8,2470.567,13.28,0.056,120.6
2022-05-08T04:31:03,42.805,6.029,0.058,-0.027,0.015,101.0,106.0,100.0,13.4,1505.2,327.8,-0.7,1.8,2470.549,13.28,0.063,115.0
2022-05-08T04:34:03,42.805,6.029,0.02,-0.012,0.015,101.0,105.0,102.0,13.4,1505.2,332.4,-0.8,1.8,2470.578,13.28,0.023,121.0
2022-05-08T04:37:03,42.805,6.029,0.028,-0.026,0.001,101.0,102.0,100.0,13.3,1505.2,330.3,-0.8,1.9,2470.565,13.28,0.038,132.9
2022-05-08T04:40:03,42.805,6.029,0.033,-0.004,-0.01,100.0,105.0,100.0,13.4,1505.2,331.4,-0.8,1.8,2470.585,13.28,0.033,96.9
2022-05-08T04:43:03,42.805,6.029,0.045,-0.02,-0.015,100.0,104.0,100.0,13.4,1505.2,321.5,-0.7,1.8,2470.601,13.28,0.049,114.0
2022-05-08T04:46:03,42.805,6.029,0.038,-0.01,0.011,101.0,104.0,101.0,13.4,1505.2,321.5,-0.8,1.8,2470.563,13.28,0.039,104.7
2022-05-08T04:49:03,42.805,6.029,0.026,-0.021,0.033,100.0,104.0,101.0,13.4,1505.2,322.4,-0.8,1.8,2470.606,13.28,0.033,128.9
2022-05-08T04:52:03,42.805,6.029,0.049,-0.005,0.008,99.0,104.0,101.0,13.4,1505.2,323.5,-0.8,1.8,2470.571,13.28,0.049,95.8
2022-05-08T04:55:03,42.805,6.029,0.02,0.023,0.037,100.0,106.0,100.0,13.4,1505.2,333.6,-0.7,1.8,2470.6,13.28,0.03,41.0
2022-05-08T04:58:03,42.805,6.029,0.043,-0.02,0.013,102.0,103.0,100.0,13.4,1505.2,332.2,-0.7,1.8,2470.589,13.28,0.047,114.9
2022-05-08T05:04:03,42.805,6.029,0.061,-0.019,0.0,103.0,101.0,101.0,13.4,1505.2,322.0,-0.8,1.8,2470.562,13.28,0.063,107.3
2022-05-08T05:07:03,42.805,6.029,0.01,0.011,0.042,100.0,105.0,100.0,13.4,1505.2,325.3,-0.8,1.8,2470.62,13.28,0.014,42.3
2022-05-08T05:10:03,42.805,6.029,0.025,-0.016,0.046,102.0,105.0,99.0,13.4,1505.2,333.0,-0.7,1.8,2470.567,13.28,0.029,122.6
2022-05-08T05:13:03,42.805,6.029,0.044,-0.027,0.033,101.0,103.0,101.0,13.3,1505.2,330.6,-0.8,1.8,2470.527,13.28,0.051,121.5
2022-05-08T05:16:03,42.805,6.029,0.03,-0.003,0.019,100.0,105.0,100.0,13.4,1505.2,325.6,-0.8,1.8,2470.499,13.28,0.03,95.7
2022-05-08T05:19:03,42.805,6.029,-0.021,-0.035,-0.052,102.0,105.0,100.0,13.3,1505.2,326.3,-0.7,1.9,2470.466,13.28,0.04,211.0
2022-05-08T05:22:03,42.805,6.029,0.04,-0.012,0.025,101.0,105.0,100.0,13.4,1505.2,328.8,-0.7,1.8,2470.472,13.28,0.041,106.7
2022-05-08T05:25:03,42.805,6.029,0.051,-0.027,-0.005,100.0,104.0,99.0,13.4,1505.2,326.8,-0.7,1.8,2470.462,13.28,0.057,117.9
2022-05-08T05:28:03,42.805,6.029,0.017,-0.014,0.014,101.0,103.0,101.0,13.3,1505.2,327.7,-0.7,1.8,2470.443,13.28,0.022,129.5
2022-05-08T05:31:03,42.805,6.029,0.054,-0.028,0.003,102.0,102.0,100.0,13.4,1505.2,331.8,-0.7,1.8,2470.385,13.28,0.06,117.4
2022-05-08T05:34:03,42.805,6.029,0.034,-0.011,-0.02,100.0,103.0,101.0,13.4,1505.2,332.6,-0.7,1.8,2470.435,13.28,0.035,107.9
2022-05-08T05:37:03,42.805,6.029,0.067,-0.032,0.001,101.0,102.0,99.0,13.3,1505.2,330.1,-0.8,1.8,2470.43,13.28,0.074,115.5
2022-05-08T05:40:03,42.805,6.029,0.037,-0.002,-0.002,100.0,105.0,100.0,13.4,1505.2,332.6,-0.7,1.8,2470.441,13.28,0.037,93.1
2022-05-08T05:43:03,42.805,6.029,0.06,-0.021,0.026,101.0,105.0,99.0,13.4,1505.2,325.8,-0.7,1.8,2470.464,13.28,0.063,109.3
2022-05-08T05:46:03,42.805,6.029,0.035,-0.023,0.003,101.0,104.0,100.0,13.4,1505.2,325.9,-0.7,1.8,2470.467,13.28,0.041,123.3
2022-05-08T05:49:03,42.805,6.029,0.036,-0.005,0.011,102.0,102.0,99.0,13.4,1505.2,327.7,-0.8,1.9,2470.458,13.28,0.036,97.9
2022-05-08T05:52:03,42.805,6.029,0.034,-0.025,0.03,101.0,105.0,100.0,13.3,1505.2,325.1,-0.7,1.8,2470.494,13.28,0.042,126.3
2022-05-08T05:55:03,42.805,6.029,0.037,-0.013,0.006,101.0,105.0,101.0,13.4,1505.2,324.9,-0.7,1.8,2470.544,13.28,0.039,109.4
2022-05-08T05:58:03,42.805,6.029,0.045,-0.015,0.002,101.0,106.0,99.0,13.4,1505.2,325.0,-0.7,1.8,2470.506,13.28,0.047,108.4
2022-05-08T06:04:04,42.805,6.029,0.045,-0.023,0.002,101.0,105.0,100.0,13.4,1505.2,332.6,-0.7,1.8,2470.536,13.28,0.05,117.1
2022-05-08T06:07:03,42.805,6.029,0.025,-0.012,-0.012,102.0,103.0,100.0,13.4,1505.2,328.5,-0.8,1.8,2470.469,13.28,0.027,115.6
2022-05-08T06:10:03,42.805,6.029,0.043,-0.044,-0.045,102.0,103.0,100.0,13.3,1505.2,323.3,-0.8,1.8,2470.48,13.28,0.061,135.7
2022-05-08T06:13:03,42.805,6.029,0.059,-0.022,0.013,100.0,105.0,99.0,13.4,1505.2,323.3,-0.7,1.8,2470.454,13.28,0.062,110.4
2022-05-08T06:16:03,42.805,6.029,0.048,-0.025,0.001,101.0,103.0,100.0,13.4,1505.2,325.8,-0.8,1.9,2470.47,13.28,0.054,117.5
2022-05-08T06:19:03,42.805,6.029,0.019,-0.024,-0.004,101.0,103.0,100.0,13.4,1505.2,325.7,-0.8,1.8,2470.527,13.28,0.03,141.6
2022-05-08T06:22:03,42.805,6.029,0.029,-0.02,0.032,100.0,106.0,100.0,13.4,1505.2,322.3,-0.7,1.8,2470.489,13.28,0.035,124.6
2022-05-08T06:25:03,42.805,6.029,0.012,-0.02,-0.019,102.0,104.0,100.0,13.4,1505.2,325.7,-0.7,1.9,2470.527,13.28,0.023,149.0
2022-05-08T06:28:03,42.805,6.029,0.009,-0.007,-0.015,102.0,105.0,100.0,13.4,1505.2,326.5,-0.8,1.9,2470.502,13.28,0.011,127.9
2022-05-08T06:31:03,42.805,6.029,0.075,-0.009,0.055,101.0,105.0,100.0,13.3,1505.2,327.1,-0.8,1.8,2470.489,13.28,0.075,96.8
2022-05-08T06:34:03,42.805,6.029,0.05,-0.023,0.042,101.0,105.0,100.0,13.3,1505.2,327.0,-0.8,1.8,2470.479,13.28,0.055,114.7
2022-05-08T06:37:03,42.805,6.029,0.087,-0.01,0.032,101.0,106.0,100.0,13.4,1505.2,327.3,-0.7,1.8,2470.521,13.28,0.087,96.6
2022-05-08T06:40:03,42.805,6.029,0.056,-0.023,0.015,101.0,105.0,100.0,13.4,1505.2,332.4,-0.8,1.8,2470.496,13.28,0.06,112.3
2022-05-08T06:43:03,42.805,6.029,0.039,-0.028,0.019,101.0,104.0,100.0,13.3,1505.2,330.8,-0.7,1.8,2470.479,13.28,0.048,125.7
2022-05-08T06:46:03,42.805,6.029,0.047,-0.01,0.031,102.0,102.0,100.0,13.3,1505.2,328.0,-0.8,1.8,2470.502,13.28,0.048,102.0
2022-05-08T06:49:03,42.805,6.029,0.047,0.006,0.052,100.0,106.0,100.0,13.4,1505.2,329.1,-0.7,1.8,2470.505,13.28,0.047,82.7
2022-05-08T06:52:03,42.805,6.029,0.045,-0.039,-0.012,101.0,103.0,100.0,13.4,1505.2,325.1,-0.8,1.8,2470.514,13.28,0.059,130.9
2022-05-08T06:55:03,42.805,6.029,0.04,-0.006,0.012,102.0,102.0,100.0,13.3,1505.2,321.5,-0.8,1.8,2470.484,13.28,0.04,98.5
2022-05-08T06:58:03,42.805,6.029,0.045,-0.021,0.009,101.0,104.0,100.0,13.4,1505.2,325.3,-0.8,1.8,2470.442,13.28,0.049,115.0
2022-05-08T07:04:03,42.805,6.029,0.02,-0.045,-0.03,101.0,104.0,100.0,13.4,1505.2,329.4,-0.8,1.8,2470.482,13.28,0.049,156.0
2022-05-08T07:07:02,42.805,6.029,0.035,-0.004,0.029,102.0,104.0,100.0,13.4,1505.2,330.0,-0.8,1.8,2470.465,13.28,0.035,96.5
2022-05-08T07:10:03,42.805,6.029,0.067,-0.012,0.041,101.0,106.0,101.0,13.3,1505.2,327.2,-0.7,1.8,2470.489,13.28,0.068,100.2
2022-05-08T07:13:03,42.805,6.029,0.029,-0.008,0.012,101.0,104.0,100.0,13.4,1505.2,328.2,-0.8,1.8,2470.503,13.28,0.03,105.4
2022-05-08T07:16:03,42.805,6.029,0.046,-0.026,-0.002,101.0,102.0,100.0,13.4,1505.2,326.5,-0.7,1.8,2470.504,13.28,0.052,119.5
2022-05-08T07:19:03,42.805,6.029,0.032,0.019,0.053,100.0,106.0,100.0,13.3,1505.2,331.6,-0.8,1.8,2470.529,13.28,0.037,59.3
2022-05-08T07:22:03,42.805,6.029,0.022,-0.01,0.03,101.0,104.0,101.0,13.4,1505.2,321.7,-0.8,1.8,2470.527,13.28,0.024,114.4
2022-05-08T07:25:03,42.805,6.029,0.028,-0.027,-0.016,101.0,105.0,100.0,13.4,1505.2,322.7,-0.8,1.8,2470.579,13.28,0.038,134.0
2022-05-08T07:28:03,42.805,6.029,0.045,-0.027,0.001,102.0,105.0,100.0,13.4,1505.2,329.9,-0.7,1.8,2470.561,13.28,0.052,121.0
2022-05-08T07:31:03,42.805,6.029,0.033,-0.025,0.0,101.0,104.0,100.0,13.4,1505.2,329.5,-0.7,1.8,2470.573,13.28,0.041,127.1
2022-05-08T07:34:02,42.805,6.029,0.056,-0.018,0.02,101.0,103.0,101.0,13.4,1505.2,325.8,-0.8,1.8,2470.613,13.28,0.058,107.8
2022-05-08T07:37:02,42.805,6.029,0.072,-0.015,0.047,99.0,106.0,100.0,13.4,1505.2,329.7,-0.8,1.8,2470.579,13.28,0.073,101.8
2022-05-08T07:40:03,42.805,6.029,0.031,-0.016,0.022,101.0,103.0,100.0,13.4,1505.2,330.5,-0.8,1.8,2470.59,13.28,0.034,117.3
2022-05-08T07:43:02,42.805,6.029,0.03,-0.012,0.008,101.0,105.0,100.0,13.3,1505.2,331.5,-0.7,1.8,2470.608,13.28,0.032,111.8
2022-05-08T07:46:02,42.805,6.029,0.022,0.002,0.036,101.0,103.0,99.0,13.4,1505.2,328.1,-0.7,1.8,2470.602,13.28,0.022,84.8
2022-05-08T07:49:03,42.805,6.029,0.062,-0.02,0.058,102.0,103.0,100.0,13.4,1505.2,325.7,-0.8,1.8,2470.597,13.28,0.065,107.9
2022-05-08T07:52:02,42.805,6.029,0.073,-0.006,0.06,101.0,105.0,101.0,13.4,1505.2,323.1,-0.8,1.8,2470.645,13.28,0.073,94.7
2022-05-08T07:55:02,42.805,6.029,0.03,-0.003,0.038,102.0,104.0,99.0,13.4,1505.2,326.6,-0.7,1.8,2470.618,13.28,0.03,95.7
2022-05-08T07:58:02,42.805,6.029,0.052,-0.007,0.035,102.0,103.0,100.0,13.3,1505.2,326.1,-0.7,1.8,2470.593,13.28,0.052,97.7
2022-05-08T08:04:02,42.805,6.029,0.039,-0.024,-0.003,100.0,104.0,100.0,13.4,1505.2,322.3,-0.7,1.8,2470.694,13.28,0.045,121.6
2022-05-08T08:07:02,42.805,6.029,0.048,-0.028,0.019,101.0,104.0,99.0,13.4,1505.2,331.8,-0.8,1.8,2470.632,13.28,0.055,120.3
2022-05-08T08:10:02,42.805,6.029,0.016,0.001,0.016,101.0,104.0,100.0,13.4,1505.2,322.0,-0.7,1.8,2470.614,13.28,0.016,86.4
2022-05-08T08:13:03,42.805,6.029,0.052,0.01,0.03,101.0,104.0,100.0,13.4,1505.2,324.0,-0.7,1.8,2470.642,13.28,0.052,79.1
2022-05-08T08:16:03,42.805,6.029,0.023,-0.013,0.026,100.0,104.0,100.0,13.4,1505.2,331.6,-0.8,1.8,2470.66,13.28,0.026,119.5
2022-05-08T08:19:02,42.805,6.029,0.061,-0.043,0.007,101.0,103.0,100.0,13.3,1505.2,330.5,-0.7,1.8,2470.623,13.28,0.074,125.2
2022-05-08T08:22:02,42.805,6.029,0.061,-0.007,0.055,101.0,102.0,100.0,13.4,1505.2,326.6,-0.8,1.8,2470.679,13.28,0.061,96.5
2022-05-08T08:25:03,42.805,6.029,0.017,-0.003,0.011,101.0,103.0,101.0,13.4,1505.2,326.9,-0.8,1.8,2470.595,13.28,0.017,100.0
2022-05-08T08:28:03,42.805,6.029,0.038,-0.034,-0.034,101.0,106.0,100.0,13.3,1505.2,322.5,-0.7,1.8,2470.682,13.28,0.05,131.8
2022-05-08T08:31:02,42.805,6.029,0.06,-0.033,0.001,100.0,105.0,100.0,13.3,1505.2,329.4,-0.7,1.8,2470.676,13.28,0.068,118.8
2022-05-08T08:34:02,42.805,6.029,0.037,0.005,0.05,101.0,105.0,100.0,13.3,1505.2,328.2,-0.7,1.8,2470.635,13.28,0.037,82.3
2022-05-08T08:37:02,42.805,6.029,0.057,-0.019,0.043,101.0,103.0,100.0,13.4,1505.2,327.9,-0.8,1.8,2470.603,13.28,0.06,108.4
2022-05-08T08:40:03,42.805,6.029,0.043,-0.011,0.042,101.0,104.0,101.0,13.3,1505.2,323.8,-0.8,1.8,2470.628,13.28,0.044,104.3
2022-05-08T08:43:03,42.805,6.029,0.063,-0.014,0.031,101.0,104.0,100.0,13.4,1505.2,328.0,-0.8,1.8,2470.617,13.28,0.064,102.5
2022-05-08T08:46:02,42.805,6.029,0.004,-0.024,-0.006,102.0,104.0,99.0,13.4,1505.2,323.1,-0.8,1.8,2470.634,13.28,0.024,170.5
2022-05-08T08:49:03,42.805,6.029,0.047,-0.009,0.036,101.0,103.0,100.0,13.4,1505.2,323.6,-0.8,1.8,2470.621,13.28,0.047,100.8
2022-05-08T08:52:02,42.805,6.029,0.032,-0.005,0.04,101.0,104.0,101.0,13.3,1505.2,324.0,-0.7,1.8,2470.626,13.28,0.032,98.9
2022-05-08T08:55:03,42.805,6.029,0.046,0.001,0.047,100.0,104.0,101.0,13.4,1505.2,331.2,-0.8,1.8,2470.647,13.28,0.046,88.8
2022-05-08T08:58:03,42.805,6.029,0.052,-0.017,-0.001,100.0,103.0,100.0,13.3,1505.2,321.7,-0.8,1.8,2470.573,13.28,0.054,108.1
2022-05-08T09:04:02,42.805,6.029,0.011,-0.021,0.009,101.0,103.0,101.0,13.4,1505.2,324.0,-0.8,1.8,2470.641,13.28,0.023,152.4
2022-05-08T09:07:02,42.805,6.029,0.06,-0.035,0.024,101.0,104.0,100.0,13.3,1505.2,326.9,-0.7,1.8,2470.646,13.28,0.069,120.3
2022-05-08T09:10:03,42.805,6.029,0.039,-0.01,0.047,102.0,105.0,99.0,13.4,1505.2,324.2,-0.8,1.8,2470.637,13.28,0.04,104.4
2022-05-08T09:13:03,42.805,6.029,0.011,0.018,0.022,99.0,106.0,101.0,13.4,1505.2,326.9,-0.7,1.8,2470.62,13.28,0.021,31.4
2022-05-08T09:16:03,42.805,6.029,0.029,-0.001,0.013,101.0,105.0,101.0,13.4,1505.2,321.2,-0.7,1.8,2470.639,13.28,0.029,92.0
2022-05-08T09:19:03,42.805,6.029,0.012,-0.01,0.0,99.0,105.0,101.0,13.4,1505.2,329.0,-0.8,1.8,2470.656,13.28,0.015,129.8
2022-05-08T09:22:02,42.805,6.029,0.036,-0.02,0.037,102.0,103.0,99.0,13.4,1505.2,325.5,-0.7,1.8,2470.643,13.28,0.041,119.1
2022-05-08T09:25:03,42.805,6.029,0.086,-0.014,0.062,100.0,105.0,101.0,13.4,1505.2,324.8,-0.7,1.8,2470.652,13.28,0.087,99.2
2022-05-08T09:28:03,42.805,6.029,0.026,-0.028,0.012,102.0,104.0,98.0,13.4,1505.2,330.3,-0.8,1.9,2470.618,13.28,0.038,137.1
2022-05-08T09:31:03,42.805,6.029,0.039,-0.002,-0.002,101.0,103.0,100.0,13.4,1505.2,322.1,-0.8,1.8,2470.647,13.28,0.039,92.9
2022-05-08T09:34:03,42.805,6.029,0.008,-0.014,0.003,102.0,105.0,99.0,13.3,1505.2,327.1,-0.8,1.8,2470.61,13.28,0.016,150.3
2022-05-08T09:37:02,42.805,6.029,0.052,-0.011,0.027,102.0,104.0,100.0,13.4,1505.2,328.7,-0.7,1.8,2470.632,13.28,0.053,101.9
2022-05-08T09:40:03,42.805,6.029,0.007,-0.008,0.012,101.0,104.0,101.0,13.4,1505.2,326.6,-0.7,1.9,2470.669,13.28,0.01,138.8
2022-05-08T09:43:03,42.805,6.029,0.064,-0.016,0.015,101.0,104.0,100.0,13.4,1505.2,326.9,-0.7,1.8,2470.672,13.28,0.065,104.0
2022-05-08T09:46:03,42.805,6.029,0.006,-0.02,-0.034,101.0,104.0,100.0,13.4,1505.2,325.6,-0.8,1.8,2470.676,13.28,0.02,163.3
2022-05-08T09:49:02,42.805,6.029,0.035,-0.008,0.04,101.0,102.0,100.0,13.3,1505.2,326.3,-0.7,1.8,2470.648,13.28,0.035,102.9
2022-05-08T09:52:02,42.805,6.029,0.04,-0.015,0.007,99.0,104.0,101.0,13.4,1505.2,326.4,-0.8,1.8,2470.661,13.28,0.042,110.6
2022-05-08T09:55:03,42.805,6.029,0.058,-0.007,0.015,102.0,104.0,99.0,13.3,1505.2,324.1,-0.8,1.8,2470.701,13.28,0.058,96.9
2022-05-08T09:58:03,42.805,6.029,0.037,-0.021,0.013,100.0,104.0,100.0,13.4,1505.2,332.8,-0.8,1.8,2470.69,13.28,0.042,119.6
2022-05-08T10:04:02,42.805,6.029,0.042,-0.012,0.03,100.0,105.0,100.0,13.4,1505.2,323.8,-0.8,1.8,2470.725,13.28,0.043,105.9